[[{"header":{"parameterUnit":"m.s-1","parameterCategory":1,"la1":30.2991,"la2":30.254,"lo1":-89.0895,"lo2":-89.0444,"dy":0.0017,"dx":0.0017,"nx":28,"ny":28,"refTime":"2026-02-08T09:00:00:Z","depth":0,"parameterNumber":2,"parameterNumberName":"U-component_of_WINDS"},"data":[0,0,0,0,0,0,0,0,0,0,0,0,0,0,0,0,0,0,0,0,0,0,0,0,0,0,0,0,0,0,0,0,0,0,0,0,0,0,0,0,0,0,0,0,0,0,0,0,0,0,0,0,0,0,0,0,0,0,-2.0771,-2.0772,0,-2.0785,-2.0785,-2.0785,-2.0731,-2.0729,-2.0728,-2.0726,-2.0739,-2.0741,-2.0743,0,0,0,0,0,0,0,0,0,0,0,0,0,-2.0701,-2.0702,-2.0771,-2.0772,-2.0772,-2.0785,-2.0785,-2.0785,-2.0731,-2.0729,-2.0727,-2.0726,-2.0739,-2.0741,-2.0743,0,0,0,0,0,0,0,0,0,0,0,0,0,-2.0725,-2.0703,-2.0771,-2.0747,-2.0744,-2.0785,-2.0785,-2.0785,-2.0732,-2.0729,-2.0727,-2.0725,-2.0738,-2.0741,-2.0744,-2.0808,0,0,-2.0752,-2.0753,0,0,0,0,0,0,0,0,-2.0723,-2.0727,-2.075,-2.0748,-2.0746,-2.0754,-2.0765,-2.0793,-2.0732,-2.0736,-2.0726,-2.0723,-2.0746,-2.0748,-2.0756,-2.0809,-2.0809,-2.0752,-2.0754,-2.0755,-2.0756,0,0,0,0,0,0,0,-2.0722,-2.0726,-2.0777,-2.075,-2.0748,-2.0735,-2.0736,-2.077,-2.0754,-2.0736,-2.0732,-2.0734,-2.0745,-2.0753,-2.0756,-2.0809,-2.0752,-2.0754,-2.0756,-2.0757,-2.0918,-2.092,0,0,0,0,0,0,-2.0723,-2.0725,-2.0776,-2.0777,-2.0729,-2.0738,-2.0739,-2.0754,-2.0754,-2.0752,-2.0736,-2.0732,-2.075,-2.0752,-2.0756,-2.0832,-2.0755,-2.0758,-2.0759,-2.0915,-2.0918,-2.0921,0,0,0,0,0,0,-2.0722,-2.0728,-2.0776,-2.075,-2.0755,-2.0742,-2.0759,-2.0755,-2.0764,-2.0754,-2.0751,-2.0748,-2.0748,-2.0752,-2.0796,-2.0832,-2.0759,-2.0761,-2.0912,-2.0916,-2.092,-2.0985,0,0,0,0,0,0,-2.072,-2.0728,-2.0752,-2.0751,-2.0757,-2.0815,-2.0761,-2.0757,-2.0769,-2.0763,-2.0764,-2.0762,-2.0746,-2.0792,-2.0799,-2.0834,-2.0763,-2.0909,-2.0914,-2.0919,-2.0979,-2.099,-2.1,0,0,0,0,0,-2.0718,-2.0769,-2.0754,-2.076,-2.0786,-2.0817,-2.082,-2.0801,-2.0772,-2.0796,-2.079,-2.0762,-2.0827,-2.0797,-2.0804,-2.0841,-2.0906,-2.0912,-2.0918,-2.0975,-2.0988,-2.0999,0,0,0,0,0,0,-2.0774,-2.0769,-2.0751,-2.0804,-2.0812,-2.0808,-2.0838,-2.0816,-2.0832,-2.0826,-2.0801,-2.0802,-2.085,-2.085,-2.0817,-2.0904,-2.0862,-2.0869,-2.0902,-2.0915,-2.0925,-2.0924,-2.0766,0,0,0,0,0,-2.0793,-2.0818,-2.0812,-2.086,-2.0864,-2.0851,-2.0863,-2.0848,-2.0855,-2.0858,-2.0855,-2.0863,-2.0885,-2.09,-2.092,-2.098,-2.0979,-2.1009,-2.1019,-2.1027,-2.1034,-2.1066,-2.1079,-2.0941,-2.0941,-2.094,0,0,-2.0831,-2.0832,-2.0849,-2.0871,-2.0875,-2.0902,-2.0854,-2.0884,-2.0904,-2.0862,-2.0904,-2.0903,-2.091,-2.0962,-2.0985,-2.0963,-2.1073,-2.1035,-2.1042,-2.1043,-2.1074,-2.1087,-2.1098,-2.0945,-2.0944,-2.0943,0,0,-2.0915,-2.0918,-2.0958,-2.0964,-2.0971,-2.0962,-2.0972,-2.0973,-2.097,-2.1012,-2.0981,-2.1005,-2.1044,-2.1051,-2.1059,-2.1149,-2.1124,-2.1156,-2.1209,-2.1241,-2.1252,-2.1262,-2.1294,-2.1305,-2.1163,-2.1163,-2.1163,0,-2.0962,-2.1001,-2.0981,-2.1014,-2.1025,-2.099,-2.1031,-2.1037,-2.1051,-2.1059,-2.1035,-2.1084,-2.1087,-2.114,-2.1162,-2.1171,-2.1181,-2.1155,-2.1252,-2.1262,-2.127,-2.13,-2.1313,-2.1167,-2.1166,-2.1166,-2.1166,0,-2.1059,-2.1087,-2.1119,-2.1133,-2.1148,-2.1185,-2.1171,-2.1188,-2.1173,-2.1167,-2.121,-2.1212,-2.1232,-2.1244,-2.1229,-2.1297,-2.1283,-2.1256,-2.1213,-2.1287,-2.1316,-2.1327,-2.1172,-2.1171,-2.117,-2.1169,0,0,-2.1176,-2.1181,-2.1193,-2.1199,-2.1206,-2.1228,-2.1264,-2.1284,-2.13,-2.1311,-2.1341,-2.1376,-2.1352,-2.1362,-2.1347,-2.1375,-2.1447,-2.1345,-2.1345,-2.1364,-2.1522,-2.1541,-2.1555,-2.1431,-2.1433,-2.1435,-2.1521,0,-2.1258,-2.1319,-2.1303,-2.1364,-2.1391,-2.1359,-2.1391,-2.1399,-2.1395,-2.1417,-2.1413,-2.1438,-2.1404,-2.141,-2.1436,-2.1432,-2.1478,-2.1426,-2.1459,-2.146,-2.1456,-2.157,-2.159,-2.1671,-2.1532,-2.1534,-2.1535,0,-2.1361,-2.1377,-2.1441,-2.1445,-2.1456,-2.1484,-2.1503,-2.1524,-2.1533,-2.1529,-2.1541,-2.1522,-2.1558,-2.1516,-2.1566,-2.1531,-2.1544,-2.1545,-2.1547,-2.1548,-2.1501,-2.1573,-2.1696,-2.1708,-2.1552,-2.1551,-2.155,0,-2.144,-2.1478,-2.1521,-2.1528,-2.1534,-2.1555,-2.1559,-2.1565,-2.1579,-2.1596,-2.1605,-2.1625,-2.1636,-2.1653,-2.164,-2.161,-2.1693,-2.1649,-2.169,-2.169,-2.1707,-2.1706,-2.1833,-2.1717,-2.1717,-2.1717,-2.1716,0,-2.1532,-2.1573,-2.1557,-2.1583,-2.1628,-2.161,-2.1655,-2.1655,-2.1662,-2.1689,-2.1663,-2.1689,-2.1671,-2.1695,-2.1685,-2.1729,-2.1734,-2.1731,-2.1728,-2.1733,-2.1733,-2.174,-2.1734,-2.172,-2.1719,-2.1719,-2.1718,0,-2.1627,-2.1618,-2.1663,-2.1666,-2.1668,-2.1701,-2.1703,-2.1728,-2.1723,-2.1757,-2.1764,-2.1757,-2.1785,-2.1774,-2.1803,-2.1797,-2.1852,-2.1842,-2.1849,-2.1846,-2.1887,-2.1883,-2.2022,-2.2039,-2.1913,-2.1915,-2.1916,0,-2.1686,-2.1716,-2.1723,-2.1739,-2.1744,-2.1771,-2.1785,-2.177,-2.1786,-2.18,-2.1824,-2.1849,-2.1869,-2.1915,-2.1912,-2.1935,-2.1924,-2.1972,-2.1927,-2.1932,-2.1925,-2.1922,-2.1926,-2.198,-2.1981,-2.1982,-2.1983,0,-2.1791,-2.1786,-2.1808,-2.1829,-2.1847,-2.1863,-2.1876,-2.1891,-2.1877,-2.1896,-2.1925,-2.194,-2.1971,-2.1996,-2.2017,-2.2021,-2.2,-2.1998,-2.2008,-2.2013,-2.2016,-2.2014,-2.1872,-2.1994,-2.1993,-2.1992,-2.1992,-2.1991,-2.1869,-2.1895,-2.1904,-2.193,-2.1939,-2.1953,-2.1977,-2.1976,-2.1999,-2.2023,-2.2013,-2.2046,-2.2056,-2.2082,-2.209,-2.2115,-2.2097,-2.2112,-2.2116,-2.212,-2.2125,-2.2013,-2.2119,-2.2119,-2.2119,-2.2118,-2.2118,0,-2.1973,-2.1978,-2.2002,-2.2022,-2.2043,-2.2023,-2.2037,-2.2056,-2.2085,-2.2097,-2.2117,-2.215,-2.2176,-2.2177,-2.2201,-2.2221,-2.2213,-2.2228,-2.2226,-2.2227,-2.214,-2.2128,-2.2235,-2.2235,-2.2235,-2.2235,-2.2235,-2.2235,-2.2029,-2.2072,-2.2069,-2.2117,-2.2121,-2.2153,-2.2164,-2.2177,-2.2186,-2.2224,-2.2246,-2.2246,-2.2254,-2.2279,-2.2302,-2.2302,-2.2311,-2.2331,-2.2327,-2.2245,-2.2233,-2.2222,-2.2211,-2.2333,-2.2333,-2.2411,-2.2412,-2.2413]},{"header":{"parameterUnit":"m.s-1","parameterCategory":1,"la1":30.2991,"la2":30.254,"lo1":-89.0895,"lo2":-89.0444,"dy":0.0017,"dx":0.0017,"nx":28,"ny":28,"refTime":"2026-02-08T09:00:00:Z","depth":0,"parameterNumber":3,"parameterNumberName":"V-component_of_WINDS"},"data":[0,0,0,0,0,0,0,0,0,0,0,0,0,0,0,0,0,0,0,0,0,0,0,0,0,0,0,0,0,0,0,0,0,0,0,0,0,0,0,0,0,0,0,0,0,0,0,0,0,0,0,0,0,0,0,0,0,0,1.3473,1.3473,0,1.3504,1.3505,1.3505,1.3504,1.3504,1.3503,1.3503,1.3534,1.3535,1.3536,0,0,0,0,0,0,0,0,0,0,0,0,0,1.3413,1.3414,1.3473,1.3473,1.3474,1.3504,1.3505,1.3505,1.3504,1.3504,1.3503,1.3503,1.3533,1.3535,1.3536,0,0,0,0,0,0,0,0,0,0,0,0,0,1.3441,1.3414,1.3473,1.3477,1.3478,1.3504,1.3505,1.3505,1.3504,1.3504,1.3503,1.3502,1.3533,1.3535,1.3536,1.356,0,0,1.3542,1.3543,0,0,0,0,0,0,0,0,1.3439,1.3443,1.3476,1.3477,1.3477,1.35,1.3495,1.3524,1.3504,1.3494,1.3503,1.3502,1.3523,1.3525,1.3533,1.3562,1.3563,1.3542,1.3543,1.3544,1.3545,0,0,0,0,0,0,0,1.3437,1.3442,1.3485,1.3476,1.3477,1.3477,1.3481,1.35,1.3512,1.3495,1.3495,1.3499,1.3523,1.3531,1.3533,1.3564,1.3542,1.3544,1.3545,1.3546,1.3616,1.3617,0,0,0,0,0,0,1.3434,1.344,1.3484,1.3486,1.3456,1.3479,1.3483,1.3493,1.3511,1.3514,1.3499,1.3499,1.3528,1.3531,1.3534,1.3565,1.3544,1.3546,1.3547,1.3616,1.3617,1.3617,0,0,0,0,0,0,1.3433,1.3438,1.3483,1.3463,1.3469,1.3481,1.3492,1.3494,1.3502,1.3515,1.3517,1.3505,1.3528,1.3532,1.3555,1.3566,1.3547,1.3548,1.3615,1.3616,1.3617,1.3626,0,0,0,0,0,0,1.3431,1.3438,1.3447,1.3463,1.347,1.3502,1.3493,1.3495,1.3505,1.3505,1.3521,1.3523,1.3528,1.3552,1.3556,1.3568,1.355,1.3614,1.3615,1.3617,1.3625,1.3627,1.3629,0,0,0,0,0,1.3429,1.3447,1.3447,1.3453,1.3481,1.3503,1.3507,1.3512,1.3506,1.3515,1.3524,1.3522,1.3564,1.3554,1.3559,1.3572,1.3613,1.3615,1.3616,1.3623,1.3627,1.3629,0,0,0,0,0,0,1.3431,1.3449,1.345,1.3474,1.3487,1.3503,1.3515,1.3515,1.353,1.3529,1.3535,1.3538,1.3561,1.3569,1.3557,1.3597,1.3588,1.3591,1.3591,1.3595,1.3597,1.3595,1.3551,0,0,0,0,0,1.3434,1.345,1.3466,1.3485,1.3492,1.3502,1.3512,1.3515,1.3529,1.3534,1.3545,1.3558,1.3574,1.3585,1.36,1.3626,1.363,1.3637,1.364,1.3642,1.3644,1.366,1.3664,1.3623,1.3623,1.3623,0,0,1.3441,1.3453,1.3463,1.3486,1.3497,1.3514,1.3507,1.3525,1.3537,1.3537,1.3559,1.3568,1.3583,1.3608,1.3619,1.3615,1.3656,1.3644,1.3645,1.3647,1.3662,1.3666,1.3669,1.3624,1.3624,1.3624,0,0,1.3462,1.3472,1.3491,1.3502,1.3519,1.3526,1.353,1.3547,1.3553,1.3575,1.3576,1.3592,1.3619,1.3631,1.364,1.3668,1.3668,1.3673,1.3686,1.3701,1.3704,1.3707,1.3718,1.3722,1.3675,1.3675,1.3675,0,1.3468,1.3493,1.35,1.3519,1.3529,1.3531,1.355,1.3561,1.3581,1.3589,1.3584,1.3621,1.3631,1.3659,1.3666,1.3673,1.368,1.3671,1.3703,1.3706,1.3709,1.372,1.3724,1.3676,1.3676,1.3676,1.3676,0,1.3501,1.3519,1.3532,1.3553,1.3565,1.3584,1.3594,1.3606,1.3609,1.3616,1.3641,1.3653,1.3673,1.368,1.3682,1.3709,1.3706,1.3702,1.3693,1.3714,1.3724,1.3728,1.3677,1.3677,1.3677,1.3676,0,0,1.3522,1.3549,1.3553,1.3564,1.3584,1.3598,1.3617,1.3637,1.3647,1.3662,1.3679,1.3704,1.3701,1.3712,1.3716,1.3729,1.3753,1.3724,1.3725,1.373,1.3785,1.3788,1.3793,1.3753,1.3753,1.3754,1.3784,0,1.3546,1.3581,1.3588,1.3619,1.3636,1.3639,1.3656,1.3671,1.3679,1.3695,1.3704,1.3722,1.3717,1.3724,1.3737,1.3747,1.3764,1.3745,1.3769,1.377,1.3766,1.3798,1.3801,1.3829,1.3788,1.3789,1.3789,0,1.3578,1.3595,1.3627,1.3647,1.3654,1.367,1.3689,1.3705,1.3722,1.3727,1.374,1.3743,1.3765,1.3755,1.3784,1.3771,1.3782,1.3789,1.379,1.3792,1.3781,1.3802,1.3837,1.3842,1.3795,1.3795,1.3794,0,1.3592,1.3623,1.3647,1.3655,1.3678,1.3689,1.3699,1.3716,1.3728,1.3745,1.3753,1.3772,1.3783,1.3798,1.3807,1.3798,1.3837,1.3827,1.3842,1.3842,1.385,1.3849,1.3888,1.3856,1.3856,1.3856,1.3855,0,1.3618,1.3638,1.3653,1.3668,1.3691,1.37,1.3723,1.3733,1.3748,1.3765,1.3768,1.3784,1.3794,1.3812,1.3819,1.3844,1.3848,1.3853,1.3855,1.3853,1.3853,1.386,1.3859,1.3857,1.3856,1.3856,1.3856,0,1.3637,1.3648,1.3675,1.3695,1.3701,1.3717,1.3734,1.3749,1.3758,1.378,1.3786,1.38,1.3821,1.3832,1.3858,1.3862,1.3891,1.3891,1.3885,1.3886,1.3901,1.39,1.3946,1.3954,1.3916,1.3916,1.3917,0,1.3653,1.3668,1.3691,1.3703,1.3714,1.3733,1.3746,1.3756,1.3769,1.3791,1.3804,1.3825,1.3843,1.3877,1.389,1.3911,1.3912,1.3927,1.3915,1.3913,1.3913,1.3912,1.3915,1.3929,1.3929,1.3929,1.393,0,1.368,1.3686,1.3704,1.3726,1.3741,1.3758,1.3775,1.3785,1.3798,1.3813,1.3835,1.3849,1.3877,1.3899,1.3921,1.3931,1.3933,1.3934,1.3938,1.3937,1.3934,1.3937,1.3892,1.3932,1.3932,1.3932,1.3932,1.3932,1.3699,1.3714,1.3733,1.3754,1.3768,1.3784,1.38,1.3812,1.3831,1.3855,1.386,1.3884,1.3902,1.3932,1.3943,1.3963,1.3959,1.3966,1.3968,1.3969,1.3971,1.3931,1.3967,1.3967,1.3967,1.3966,1.3966,0,1.3728,1.3741,1.376,1.3784,1.3802,1.3803,1.3822,1.3836,1.3858,1.3875,1.3893,1.392,1.3942,1.3957,1.3979,1.3992,1.3994,1.3998,1.3997,1.4,1.3972,1.3966,1.3996,1.3996,1.3996,1.3996,1.3996,1.3996,1.3745,1.3771,1.3779,1.3812,1.3825,1.3849,1.386,1.3876,1.389,1.392,1.3938,1.3949,1.3966,1.399,1.401,1.4014,1.4023,1.4027,1.4031,1.4005,1.4002,1.3999,1.3993,1.4029,1.4029,1.4058,1.4058,1.4058]}]]